Voltar ao catálogo

THORAD DELTA 1 DEB

AtivoSSO
NORAD 8404·DEBRIS·🇺🇸 United States

Lançado Nov 15, 1974 de Vandenberg Space Force Base

Loading…

Próximas Passagens (próximas 24 horas)

TLE

AtualizadoSource: Space-Track

Época: Sep 14, 2026, 08:58 UTC

1 08404U 74089CG  26257.37364779  .00001773  00000-0  52136-2 0  9999
2 08404 100.2719 206.9605 0098515   4.3546 147.0675 13.08494612408994

Acompanhe THORAD DELTA 1 DEB em tempo real com AllMySat

Download on the App Store